Weather History for KAPA - November, 2012

Change the Weather History Date:

Friday, November 23, 2012

  Actual Average Record
Temperature  
Mean Temperature 37 °F -  
Max Temperature 53 °F 46 °F 68 °F (2011)
Min Temperature 20 °F 23 °F -5 °F (2003)
Degree Days  
Heating Degree Days 28    
Month to date heating degree days 462  
Moisture  
Dew Point 16 °F    
Average Humidity 47    
Maximum Humidity 68    
Minimum Humidity 25    
Precipitation  
Precipitation 0.00 in - - ()
Month to date precipitation 0.23  
Year to date precipitation 13.64  
Sea Level Pressure  
Sea Level Pressure 30.45 in    
Wind  
Wind Speed 6 mph (SSW)    
Max Wind Speed 13 mph    
Max Gust Speed 15 mph    
Visibility 10 miles    
Events      
Averages and records for this station are not official NWS values.
T = Trace of Precipitation, MM = Missing Value Source: NWS Daily Summary

Daily Weather History Graph

Daily Weather History Graph

Search for Another Location

Airport or City:

Trip Planner

Search our weather history database for the weather conditions in past years. The results will help you decide how hot, cold, wet, or windy it might be!

Date:

Astronomy

Nov. 23, 2012 Rise Set
Actual Time 6:53 AM MST 4:38 PM MST
Civil Twilight 6:23 AM MST 5:07 PM MST
Nautical Twilight 5:50 AM MST 5:40 PM MST
Astronomical Twilight 5:18 AM MST 6:13 PM MST
Moon 1:53 PM MST (11/23) 2:15 AM MST (11/23)
Length of Visible Light 10h 44m
Length of Day
9h 45m
Waxing Gibbous, 80% of the Moon is Illuminated
Nov 23
Waxing Gibbous
Nov 28
Full
Dec 6
Last Quarter
Dec 13
New
Dec 19
First Quarter

Hourly Weather History & Observations

Time (MST) Temp. Windchill Dew Point Humidity Pressure Visibility Wind Dir Wind Speed Gust Speed Precip Events Conditions
12:53 AM 28.0 °F 20.0 °F 15.1 °F 58% 30.49 in 10.0 mi SSE 8.1 mph - N/A   Clear
1:53 AM 24.1 °F 17.0 °F 14.0 °F 65% 30.50 in 10.0 mi SE 5.8 mph - N/A   Clear
2:53 AM 23.0 °F 13.9 °F 14.0 °F 68% 30.51 in 10.0 mi SE 8.1 mph - N/A   Clear
3:53 AM 24.1 °F - 15.1 °F 69% 30.51 in 10.0 mi Calm Calm - N/A   Clear
4:53 AM 21.0 °F 13.4 °F 12.9 °F 71% 30.55 in 10.0 mi WSW 5.8 mph - N/A   Clear
5:53 AM 24.1 °F 15.2 °F 14.0 °F 65% 30.56 in 10.0 mi West 8.1 mph - N/A   Clear
6:53 AM 24.1 °F 14.4 °F 12.9 °F 62% 30.55 in 10.0 mi West 9.2 mph - N/A   Scattered Clouds
7:53 AM 25.0 °F 19.3 °F 14.0 °F 63% 30.56 in 10.0 mi SE 4.6 mph - N/A   Partly Cloudy
8:53 AM 30.9 °F - 14.0 °F 50% 30.55 in 10.0 mi Calm Calm - N/A   Partly Cloudy
9:53 AM 35.1 °F 32.2 °F 16.0 °F 46% 30.55 in 10.0 mi East 3.5 mph - N/A   Partly Cloudy
10:53 AM 39.9 °F 37.8 °F 17.1 °F 40% 30.51 in 10.0 mi North 3.5 mph - N/A   Partly Cloudy
11:53 AM 42.1 °F 37.7 °F 17.1 °F 37% 30.48 in 10.0 mi NNW 6.9 mph - N/A   Partly Cloudy
12:53 PM 46.0 °F 43.9 °F 18.0 °F 33% 30.43 in 10.0 mi NNW 4.6 mph - N/A   Partly Cloudy
1:53 PM 48.9 °F - 19.0 °F 31% 30.40 in 10.0 mi Calm Calm - N/A   Partly Cloudy
2:53 PM 50.0 °F - 19.0 °F 29% 30.38 in 10.0 mi Calm Calm - N/A   Scattered Clouds
3:53 PM 52.0 °F - 19.9 °F 28% 30.35 in 10.0 mi Calm Calm - N/A   Mostly Cloudy
4:53 PM 46.0 °F 44.8 °F 21.0 °F 37% 30.38 in 10.0 mi NNE 3.5 mph - N/A   Mostly Cloudy
5:53 PM 39.9 °F 36.7 °F 21.0 °F 47% 30.38 in 10.0 mi SW 4.6 mph - N/A   Mostly Cloudy
6:53 PM 37.0 °F 32.4 °F 16.0 °F 42% 30.40 in 10.0 mi South 5.8 mph - N/A   Scattered Clouds
7:53 PM 34.0 °F 26.0 °F 16.0 °F 48% 30.39 in 10.0 mi South 10.4 mph - N/A   Scattered Clouds
8:53 PM 36.0 °F 28.5 °F 15.1 °F 43% 30.33 in 10.0 mi South 10.4 mph - N/A   Scattered Clouds
9:53 PM 37.9 °F 32.1 °F 14.0 °F 38% 30.29 in 10.0 mi SSW 8.1 mph - N/A   Partly Cloudy
11:53 PM 39.0 °F 34.0 °F 12.0 °F 33% 30.22 in 10.0 mi South 6.9 mph - N/A   Mostly Cloudy